+ View the NASA Portal
+ Center for Near-Earth Object Studies
IMPORTANT:
The SSD Announcement email list is now available. Major changes are coming in the near future, including possible hostname and/or URL changes. To be notified of such changes, subscribe to this email list.
Please visit
this page
for more details.
Don't show this message again
JPL Small-Body Database Browser
Search:
[
help
]
146027 (2000 DC60)
Classification:
Main-belt Asteroid
SPK-ID:
2146027
[
Ephemeris
|
Orbit Diagram
|
Orbital Elements
|
Mission Design
|
Physical Parameters
|
Discovery Circumstances
|
Close-Approach Data
]
[ show orbit diagram ]
Orbital Elements at Epoch 2458600.5 (2019-Apr-27.0) TDB
Reference:
JPL 14
(heliocentric ecliptic J2000)
Element
Value
Uncertainty (1-sigma)
Units
e
.130301593739086
7.4585e-08
a
2.388253745668894
1.8476e-08
au
q
2.077060476354895
1.7146e-07
au
i
1.262758103742468
7.4703e-06
deg
node
160.8987204496071
0.00034646
deg
peri
359.9418607990285
0.00034884
deg
M
69.93318345107224
4.1098e-05
deg
t
p
2458338.621451098204
(2018-Aug-08.12145110)
0.00015236
TDB
period
1348.090748229781
3.69
1.5643e-05
4.283e-08
d
yr
n
.2670443369429892
3.0988e-09
deg/d
Q
2.699447014982892
2.0883e-08
au
Orbit Determination Parameters
# obs. used (total)
271
data-arc span
7139 days (19.55 yr)
first obs. used
2000-02-02
last obs. used
2019-08-20
planetary ephem.
DE431
SB-pert. ephem.
SB431-N16
condition code
0
norm. resid. RMS
.67446
source
ORB
producer
Otto Matic
solution date
2019-Sep-24 03:33:18
Additional Information
Earth MOID
= 1.08596 au
Jupiter MOID
= 2.27979 au
T_jup
= 3.522
[ show covariance matrix ]
[
Ephemeris
|
Orbit Diagram
|
Orbital Elements
|
Mission Design
|
Physical Parameters
|
Discovery Circumstances
|
Close-Approach Data
]
Physical Parameter Table
Parameter
Symbol
Value
Units
Sigma
Reference
Notes
absolute magnitude
H
16.9
n/a
MPO280758
146027 (2000 DC60)
Discovered 2000-Feb-29 by LINEAR at Socorro
Reference:
20070106/Numbers.arc
Last Updated:
2007-01-09
[ show close-approach data ]
[
Ephemeris
|
Orbit Diagram
|
Orbital Elements
|
Mission Design
|
Physical Parameters
|
Discovery Circumstances
|
Close-Approach Data
]
2019-Dec-08 21:25 UT
(server date/time)
Site Manager:
Ryan S. Park
Webmaster
:
Alan B. Chamberlin